SCP
0 0 0 0 0 0 0 0 0 0 0 0 0 0 0 0 0 0 0 0 -0 -0 0 0 -0 -0 -0 0 0 0 0 0 0 0 0 0 0 0 0 0 0 0 0 0
0 -0 0 0 0 0 0 0 0 0 0 0 0 0 0 0 0 0 0 0 -0 -0 0 -0 -0 0 0 0 0 0 0 0 0 0 0 0 0 0 0 0 0 0 0 0
0 0 -0 -0 -0 0 0 0 0 0 0 0 0 0 0 0 0 0 0 0 -0 0 0 0 -0 0 0 0 0 0 0 0 0 0 0 0 0 0 0 0 0 0 0 0
0 0 -0 -0 -0 0 0 0 0 0 0 0 0 0 0 0 0 0 0 0 -0 -0 0 0 -0 -0 -0 -0 0 -0 0 0 0 0 0 0 0 0 0 0 0 0 0 0
0 0 -0 -0 -0 0 0 0 0 0 0 0 0 0 0 0 0 0 0 0 0 -0 0 0 0 -0 -0 -0 -0 -0 -0 0 0 0 0 0 0 0 0 0 0 0 0 0
0 0 -0 -0 -0 0 0 0 0 0 0 0 0 0 0 0 0 0 0 -0 -0 -0 -0 0 0 -0 0 -0 -0 -0 -0 -0 0 0 0 0 0 0 0 0 0 0 0 0
0 0 -0 -0 -0 -0 0 0 0 0 0 0 0 0 0 0 0 0 0 -0 -0 0 -0 -0 0 0 0 -0 -0 -0 -0 -0 -0 -0 0 0 0 0 0 0 0 0 0 0
0 0 0 -0 -0 -0 -0 -0 0 0 0 0 0 0 0 0 0 0 0 0 0 0 0 -0 -0 0 -0 -0 -0 -0 -0 -0 -0 -0 -0 0 0 0 0 0 0 0 0 0
0 0 -0 -0 -0 -0 -0 -0 0 0 0 0 0 0 0 0 0 0 0 0 0 0 0 0 -0 -0 -0 -0 -0 -0 -0 -0 -0 -0 -0 -0 -0 -0 0 0 0 0 0 0
0 0 -0 -0 -0 -0 -0 -0 0 0 0 0 0 0 0 0 0 0 0 0 0 0 0 0 0 0 -0 -0 -0 -0 -0 -0 -0 -0 -0 -0 0 0 -0 0 0 0 0 0
0 0 -0 -0 -0 -0 -0 -0 0 0 0 0 0 0 0 0 0 0 0 0 0 0 0 0 0 0 0 -0 -0 -0 -0 -0 -0 -0 -0 -0 -0 -0 -0 -0 -0 0 0 0
0 0 -0 -0 -0 -0 -0 -0 0 0 0 0 0 0 0 0 0 0 0 0 0 0 0 0 0 0 0 0 -0 0 -0 0 0 -0 -0 -0 -0 -0 -0 0 0 0 0 0
0 0 0 -0 -0 -0 -0 0 0 0 0 0 0 0 0 0 0 0 0 0 0 0 0 0 0 0 0 0 0 0 0 0 0 0 0 -0 -0 0 -0 -0 0 0 0 -0
0 0 0 -0 -0 -0 0 0 0 0 0 0 0 0 0 0 0 0 0 0 0 0 0 0 0 0 0 0 0 0 0 0 0 0 -0 -0 -0 -0 -0 0 0 -0 -0 -0
0 0 0 -0 -0 -0 0 0 -0 0 0 0 0 0 0 0 0 0 0 0 0 0 0 0 0 0 0 0 0 0 0 0 0 0 0 0 0 0 0 0 0 0 -0 -0
0 0 0 -0 -0 0 0 -0 0 0 0 0 0 0 0 0 0 0 0 0 0 0 0 0 0 0 0 0 0 0 0 0 0 0 0 0 0 0 0 0 0 0 0 0
0 0 0 -0 -0 0 0 0 0 0 0 0 0 0 0 0 0 0 0 0 0 0 0 0 0 0 0 0 0 0 0 0 0 0 0 0 0 0 0 0 0 0 0 0
0 0 0 0 -0 0 0 0 0 0 0 0 0 0 0 0 0 0 0 0 0 0 0 0 0 0 0 0 0 0 0 0 0 0 0 0 -0 -0 0 0 0 0 0 0
0 0 0 0 0 0 0 0 0 0 0 0 0 0 0 0 0 0 0 0 0 0 0 0 0 0 0 0 0 0 0 0 0 0 0 0 0 0 0 0 0 0 0 0
0 0 -0 0 0 0 0 0 0 0 0 0 0 0 0 0 0 0 0 0 0 0 0 0 0 0 0 0 0 0 0 0 0 0 0 0 0 0 0 0 0 0 0 0
0 0 0 0 0 -0 0 0 0 0 0 0 0 0 0 0 0 0 0 0 0 0 0 0 0 0 0 0 0 0 0 0 0 0 0 0 0 0 0 0 0 0 0 0
0 0 0 0 -0 -0 -0 0 0 0 0 0 0 0 0 0 0 0 0 0 0 0 0 0 0 0 0 0 0 0 0 0 0 0 0 0 0 0 0 -0 0 0 0 0
0 0 0 0 -0 0 -0 0 0 0 0 0 0 0 0 0 0 0 0 0 0 0 0 0 0 0 0 0 0 0 0 0 0 0 0 0 0 0 -0 -0 0 -0 -0 -0
0 0 0 -0 0 0 0 0 0 0 0 0 0 0 0 0 0 0 0 0 0 0 0 0 0 0 0 0 0 0 0 0 0 0 0 0 0 0 0 0 0 -0 0 0
0 0 0 0 0 -0 0 -0 0 0 0 0 0 0 0 0 0 0 0 0 0 0 0 0 0 0 0 0 0 0 0 0 0 0 0 0 0 -0 0 -0 -0 -0 0 0
0 0 0 0 -0 -0 -0 0 0 0 0 0 0 0 0 0 0 0 0 0 0 0 0 0 0 0 0 0 0 0 0 0 0 0 0 0 0 -0 -0 -0 0 0 0 0
0 0 0 0 0 -0 0 -0 0 0 0 0 0 0 0 0 0 0 0 0 0 0 0 0 0 0 0 0 0 0 0 0 0 0 0 0 0 -0 -0 -0 -0 0 0 0
Wind_Speed_500mb
57 49 49 49 46 44 35 15 4 14 12 7 4 5 11 7 23 27 19 13 24 33 39 42 33 42 18 14 8 34 39 5 10 27 14 2 14 20 21 22 16 5 4 10
59 57 50 51 42 35 35 10 20 22 27 6 5 9 9 8 13 27 9 13 12 22 34 24 20 35 13 18 14 3 25 17 19 7 6 6 31 22 46 1 7 16 13 9
58 58 54 54 42 34 31 18 3 7 21 14 8 4 13 10 21 27 23 27 31 38 41 35 22 19 6 21 5 25 15 13 7 28 33 13 4 26 37 23 11 25 28 6
57 59 54 55 43 31 31 17 8 13 4 11 12 10 8 12 14 20 12 12 21 23 26 34 13 11 5 9 12 7 7 11 9 12 15 11 11 14 15 37 36 15 13 9
59 60 54 52 45 35 38 14 6 10 16 12 12 20 22 30 40 13 12 20 32 20 24 26 17 11 4 3 3 1 4 2 12 12 24 11 5 10 16 21 34 21 7 10
58 59 56 50 47 36 44 44 54 47 39 6 10 13 22 33 25 30 50 34 27 26 28 40 21 16 23 10 3 3 5 7 4 4 12 11 7 8 6 15 15 31 16 9
62 60 60 53 50 41 50 46 53 17 7 13 17 24 25 31 33 36 44 35 11 18 24 33 15 12 18 14 11 7 3 3 6 2 7 2 5 5 16 17 19 15 6 16
65 63 61 54 53 50 51 54 54 28 10 20 32 31 25 41 45 36 38 58 50 34 14 4 9 10 13 9 12 4 5 1 4 7 6 11 6 8 9 4 11 10 13 10
64 63 63 54 53 57 58 67 64 53 28 25 43 22 41 24 20 11 39 56 42 15 4 4 7 7 9 9 10 4 6 2 4 5 10 9 7 15 13 11 9 14 11 18
69 63 63 55 60 61 65 76 66 66 42 71 55 23 23 29 23 10 5 6 11 38 8 6 7 9 10 5 10 7 6 1 8 4 3 10 10 13 10 8 6 22 21 7
69 69 61 62 64 65 65 81 76 65 44 69 58 68 54 32 46 17 12 8 6 4 10 8 7 5 9 4 8 10 11 10 8 4 6 12 11 11 11 8 27 6 36 43
68 69 66 69 65 68 67 90 78 60 65 44 51 76 98 80 96 56 43 15 13 18 6 5 6 3 3 4 5 3 6 12 8 12 10 4 21 4 12 9 17 11 22 8
69 70 69 75 70 71 70 81 71 56 57 71 65 70 82 78 78 75 28 35 31 17 15 8 3 7 9 8 11 1 8 3 4 6 13 13 14 24 26 30 36 30 18 22
72 74 75 80 73 74 70 80 71 56 39 15 23 67 63 61 72 83 75 55 38 25 26 7 5 6 13 6 7 9 10 11 10 8 17 20 30 41 51 51 52 53 51 36
73 76 77 81 79 77 78 82 81 76 67 11 10 30 52 48 71 87 76 63 49 35 10 4 7 5 5 2 2 6 14 13 9 11 28 24 27 47 50 56 61 64 62 65
75 79 84 86 83 76 83 59 66 66 92 25 8 15 28 50 56 79 81 68 47 38 19 9 11 9 12 5 7 25 41 44 47 21 51 40 51 63 66 70 73 71 68 66
78 84 92 93 90 78 71 31 77 68 71 24 6 4 13 49 52 48 46 55 40 22 21 9 10 10 23 5 11 34 31 37 43 44 48 41 52 42 65 68 73 68 66 56
76 87 99 103 74 70 59 61 45 40 42 14 6 4 9 33 16 9 25 21 31 24 13 10 7 10 9 7 28 49 49 51 51 55 47 47 46 55 63 58 58 63 62 57
74 86 97 56 11 6 23 30 37 38 13 7 4 11 9 26 10 14 16 18 7 10 6 7 18 5 11 31 37 44 53 53 40 38 32 31 28 31 21 21 25 31 34 31
75 66 27 19 16 86 84 32 27 17 12 8 5 11 6 21 8 2 6 7 6 5 9 19 9 9 56 38 37 29 36 37 33 26 11 18 21 16 14 6 8 13 20 20
43 16 20 70 87 57 15 9 6 5 2 12 12 13 9 18 7 6 10 6 6 6 8 12 5 7 30 35 45 42 42 37 35 33 29 26 30 31 31 26 22 22 23 29
30 41 73 54 15 14 10 7 3 4 12 10 9 11 13 19 15 6 8 6 3 10 8 6 6 14 10 24 33 33 33 32 33 33 32 33 35 37 38 42 36 32 33 34
39 11 9 10 13 11 9 10 5 4 8 20 16 6 16 11 10 5 6 8 10 4 4 9 11 5 18 19 19 20 22 21 22 25 28 30 31 33 37 39 38 41 43 41
5 4 12 5 13 9 6 8 7 9 10 42 40 6 8 9 5 6 10 4 7 5 4 15 7 21 25 19 14 13 14 17 20 21 26 31 36 36 36 37 38 42 42 42
9 6 10 11 15 16 21 31 27 8 24 41 15 9 7 4 7 4 8 5 9 14 14 7 15 27 22 14 10 9 12 18 21 24 30 34 40 44 44 40 46 47 48 48
15 16 8 28 10 26 9 17 17 17 21 22 6 6 7 7 9 7 15 13 15 9 6 15 30 23 13 8 7 9 15 22 26 29 34 38 41 45 51 49 45 46 50 55
12 10 31 23 16 13 12 14 16 20 13 8 6 11 15 4 6 5 10 11 6 6 23 22 16 9 4 5 8 13 18 23 28 34 37 44 46 49 54 58 49 45 49 55
Wind_Direction_500mb
326 319 316 311 310 317 320 315 289 275 185 162 265 194 201 225 279 267 256 258 263 267 279 281 277 269 272 309 280 212 211 275 146 206 202 270 192 188 186 194 217 226 144 272
325 323 321 318 306 309 314 250 270 247 202 215 248 302 296 243 262 267 251 259 257 294 284 291 264 293 237 279 24 13 197 210 191 3 294 250 202 209 200 161 115 206 167 252
329 322 320 315 311 296 295 273 302 245 213 223 148 149 260 241 260 261 254 256 270 282 270 261 263 274 269 302 71 10 348 233 259 200 211 143 209 206 204 206 183 209 219 204
327 324 316 314 315 297 285 248 230 223 253 260 222 207 225 239 275 236 244 285 243 274 298 313 209 217 240 250 346 39 346 14 20 293 326 194 179 195 197 216 229 187 213 188
322 324 316 304 308 302 284 277 229 216 255 227 189 227 248 260 265 227 262 250 280 279 279 289 309 305 229 285 83 319 313 22 357 32 360 2 271 341 219 216 231 251 133 206
318 320 315 303 301 299 288 274 267 233 251 193 183 209 237 254 256 256 244 255 273 274 291 292 239 286 309 269 164 201 227 146 81 42 329 329 223 250 271 267 228 223 201 196
319 317 314 300 297 291 288 287 285 259 247 223 225 251 236 242 245 247 265 261 230 251 296 306 282 270 273 285 284 171 206 293 106 103 346 222 312 272 226 242 277 280 144 173
315 317 313 297 296 294 288 288 279 271 264 240 250 234 246 257 245 243 254 264 254 270 286 288 358 335 3 312 268 223 188 198 110 119 153 295 121 22 33 7 291 231 210 218
315 313 314 300 296 297 293 287 282 255 263 232 243 245 233 230 237 283 250 261 266 228 167 127 175 223 224 302 304 284 190 351 109 126 147 189 180 155 217 140 281 328 251 191
314 312 310 297 298 299 296 291 286 279 227 249 251 226 228 220 201 230 259 202 195 207 186 173 166 240 172 199 186 184 138 63 172 261 149 278 241 176 136 90 289 330 16 294
316 312 308 298 300 299 298 293 289 274 253 262 242 239 224 224 208 216 206 114 242 147 195 184 205 164 232 118 190 183 171 156 179 136 80 274 203 122 165 187 175 80 24 36
315 314 306 305 302 300 302 295 288 282 261 250 258 253 251 234 251 231 197 205 156 191 160 202 118 151 66 168 259 11 230 194 185 187 212 170 188 296 259 234 208 247 153 272
313 314 307 305 304 302 300 303 302 278 263 265 257 248 249 248 242 228 206 221 208 197 197 160 190 209 141 164 234 165 290 289 227 75 248 245 259 277 276 280 272 270 270 258
313 312 310 304 305 304 300 300 291 270 264 257 251 251 246 252 233 223 216 234 212 220 195 163 155 177 187 206 192 171 194 152 196 262 265 281 274 266 271 272 269 280 287 287
312 311 312 304 305 303 303 293 281 262 232 260 243 253 250 241 225 225 219 221 219 201 180 157 213 195 130 308 65 267 173 176 169 221 236 227 248 271 277 279 282 283 286 288
312 312 310 307 303 304 305 299 290 265 234 218 215 234 216 212 215 216 215 217 208 217 181 199 212 188 158 126 203 256 249 247 250 244 259 258 265 274 280 273 271 271 273 276
313 311 309 306 298 294 284 262 286 289 217 189 136 211 190 190 189 198 203 210 205 203 190 193 165 197 174 138 227 250 237 245 260 272 283 288 280 275 278 272 269 269 262 264
315 312 310 314 296 288 275 276 271 208 183 169 129 237 164 168 153 155 184 186 195 206 193 152 157 167 169 225 241 250 251 254 260 266 266 262 282 294 285 270 268 261 255 256
313 317 328 313 289 302 293 283 203 185 183 151 136 154 189 166 121 142 157 171 181 185 178 197 161 166 213 220 239 242 245 237 243 248 257 261 278 304 283 257 251 253 251 258
312 331 334 296 337 320 313 178 189 193 200 182 163 148 145 164 138 163 115 164 173 174 231 143 203 233 237 238 235 225 224 227 238 261 249 253 262 281 285 263 233 232 232 227
332 311 283 305 306 310 252 215 167 136 191 191 177 172 136 186 130 159 202 171 163 176 236 176 205 262 237 220 223 224 234 238 243 246 252 259 267 276 278 269 264 266 261 256
297 294 295 298 278 253 243 176 117 136 209 174 152 183 138 155 165 116 173 155 140 214 140 147 225 241 175 195 214 226 234 242 247 251 253 257 265 272 272 276 277 274 268 261
314 282 272 272 259 257 208 205 248 207 175 171 166 140 130 131 171 85 133 148 206 73 93 216 229 123 165 180 192 205 217 230 239 245 253 262 267 273 278 278 282 280 275 274
284 274 287 202 269 242 198 223 219 235 161 158 154 125 149 149 130 141 172 120 111 127 185 228 218 185 169 180 196 208 227 246 255 263 267 272 276 274 275 279 280 277 276 273
219 205 235 238 285 271 298 309 301 255 165 154 115 88 118 140 140 154 105 64 232 206 221 221 166 160 162 171 199 234 252 266 273 279 282 284 286 287 284 281 280 281 280 275
210 230 274 252 261 281 332 299 282 295 173 156 152 142 129 185 141 133 206 144 219 236 208 138 149 154 168 193 233 282 296 297 300 301 301 298 297 295 292 287 286 284 277 270
214 243 235 257 285 266 281 295 280 266 248 196 143 155 196 113 108 245 186 202 222 163 133 149 153 156 192 250 286 296 298 301 305 306 305 304 306 304 301 302 303 293 283 275
Wind_Speed_850mb
57 49 49 49 46 44 35 15 4 14 12 7 4 5 11 7 23 27 19 13 24 33 39 42 33 42 18 14 8 34 39 5 10 27 14 2 14 20 21 22 16 5 4 10
59 57 50 51 42 35 35 10 20 22 27 6 5 9 9 8 13 27 9 13 12 22 34 24 20 35 13 18 14 3 25 17 19 7 6 6 31 22 46 1 7 16 13 9
58 58 54 54 42 34 31 18 3 7 21 14 8 4 13 10 21 27 23 27 31 38 41 35 22 19 6 21 5 25 15 13 7 28 33 13 4 26 37 23 11 25 28 6
57 59 54 55 43 31 31 17 8 13 4 11 12 10 8 12 14 20 12 12 21 23 26 34 13 11 5 9 12 7 7 11 9 12 15 11 11 14 15 37 36 15 13 9
59 60 54 52 45 35 38 14 6 10 16 12 12 20 22 30 40 13 12 20 32 20 24 26 17 11 4 3 3 1 4 2 12 12 24 11 5 10 16 21 34 21 7 10
58 59 56 50 47 36 44 44 54 47 39 6 10 13 22 33 25 30 50 34 27 26 28 40 21 16 23 10 3 3 5 7 4 4 12 11 7 8 6 15 15 31 16 9
62 60 60 53 50 41 50 46 53 17 7 13 17 24 25 31 33 36 44 35 11 18 24 33 15 12 18 14 11 7 3 3 6 2 7 2 5 5 16 17 19 15 6 16
65 63 61 54 53 50 51 54 54 28 10 20 32 31 25 41 45 36 38 58 50 34 14 4 9 10 13 9 12 4 5 1 4 7 6 11 6 8 9 4 11 10 13 10
64 63 63 54 53 57 58 67 64 53 28 25 43 22 41 24 20 11 39 56 42 15 4 4 7 7 9 9 10 4 6 2 4 5 10 9 7 15 13 11 9 14 11 18
69 63 63 55 60 61 65 76 66 66 42 71 55 23 23 29 23 10 5 6 11 38 8 6 7 9 10 5 10 7 6 1 8 4 3 10 10 13 10 8 6 22 21 7
69 69 61 62 64 65 65 81 76 65 44 69 58 68 54 32 46 17 12 8 6 4 10 8 7 5 9 4 8 10 11 10 8 4 6 12 11 11 11 8 27 6 36 43
68 69 66 69 65 68 67 90 78 60 65 44 51 76 98 80 96 56 43 15 13 18 6 5 6 3 3 4 5 3 6 12 8 12 10 4 21 4 12 9 17 11 22 8
69 70 69 75 70 71 70 81 71 56 57 71 65 70 82 78 78 75 28 35 31 17 15 8 3 7 9 8 11 1 8 3 4 6 13 13 14 24 26 30 36 30 18 22
72 74 75 80 73 74 70 80 71 56 39 15 23 67 63 61 72 83 75 55 38 25 26 7 5 6 13 6 7 9 10 11 10 8 17 20 30 41 51 51 52 53 51 36
73 76 77 81 79 77 78 82 81 76 67 11 10 30 52 48 71 87 76 63 49 35 10 4 7 5 5 2 2 6 14 13 9 11 28 24 27 47 50 56 61 64 62 65
75 79 84 86 83 76 83 59 66 66 92 25 8 15 28 50 56 79 81 68 47 38 19 9 11 9 12 5 7 25 41 44 47 21 51 40 51 63 66 70 73 71 68 66
78 84 92 93 90 78 71 31 77 68 71 24 6 4 13 49 52 48 46 55 40 22 21 9 10 10 23 5 11 34 31 37 43 44 48 41 52 42 65 68 73 68 66 56
76 87 99 103 74 70 59 61 45 40 42 14 6 4 9 33 16 9 25 21 31 24 13 10 7 10 9 7 28 49 49 51 51 55 47 47 46 55 63 58 58 63 62 57
74 86 97 56 11 6 23 30 37 38 13 7 4 11 9 26 10 14 16 18 7 10 6 7 18 5 11 31 37 44 53 53 40 38 32 31 28 31 21 21 25 31 34 31
75 66 27 19 16 86 84 32 27 17 12 8 5 11 6 21 8 2 6 7 6 5 9 19 9 9 56 38 37 29 36 37 33 26 11 18 21 16 14 6 8 13 20 20
43 16 20 70 87 57 15 9 6 5 2 12 12 13 9 18 7 6 10 6 6 6 8 12 5 7 30 35 45 42 42 37 35 33 29 26 30 31 31 26 22 22 23 29
30 41 73 54 15 14 10 7 3 4 12 10 9 11 13 19 15 6 8 6 3 10 8 6 6 14 10 24 33 33 33 32 33 33 32 33 35 37 38 42 36 32 33 34
39 11 9 10 13 11 9 10 5 4 8 20 16 6 16 11 10 5 6 8 10 4 4 9 11 5 18 19 19 20 22 21 22 25 28 30 31 33 37 39 38 41 43 41
5 4 12 5 13 9 6 8 7 9 10 42 40 6 8 9 5 6 10 4 7 5 4 15 7 21 25 19 14 13 14 17 20 21 26 31 36 36 36 37 38 42 42 42
9 6 10 11 15 16 21 31 27 8 24 41 15 9 7 4 7 4 8 5 9 14 14 7 15 27 22 14 10 9 12 18 21 24 30 34 40 44 44 40 46 47 48 48
15 16 8 28 10 26 9 17 17 17 21 22 6 6 7 7 9 7 15 13 15 9 6 15 30 23 13 8 7 9 15 22 26 29 34 38 41 45 51 49 45 46 50 55
12 10 31 23 16 13 12 14 16 20 13 8 6 11 15 4 6 5 10 11 6 6 23 22 16 9 4 5 8 13 18 23 28 34 37 44 46 49 54 58 49 45 49 55
Wind_Direction_850mb
326 319 316 311 310 317 320 315 289 275 185 162 265 194 201 225 279 267 256 258 263 267 279 281 277 269 272 309 280 212 211 275 146 206 202 270 192 188 186 194 217 226 144 272
325 323 321 318 306 309 314 250 270 247 202 215 248 302 296 243 262 267 251 259 257 294 284 291 264 293 237 279 24 13 197 210 191 3 294 250 202 209 200 161 115 206 167 252
329 322 320 315 311 296 295 273 302 245 213 223 148 149 260 241 260 261 254 256 270 282 270 261 263 274 269 302 71 10 348 233 259 200 211 143 209 206 204 206 183 209 219 204
327 324 316 314 315 297 285 248 230 223 253 260 222 207 225 239 275 236 244 285 243 274 298 313 209 217 240 250 346 39 346 14 20 293 326 194 179 195 197 216 229 187 213 188
322 324 316 304 308 302 284 277 229 216 255 227 189 227 248 260 265 227 262 250 280 279 279 289 309 305 229 285 83 319 313 22 357 32 360 2 271 341 219 216 231 251 133 206
318 320 315 303 301 299 288 274 267 233 251 193 183 209 237 254 256 256 244 255 273 274 291 292 239 286 309 269 164 201 227 146 81 42 329 329 223 250 271 267 228 223 201 196
319 317 314 300 297 291 288 287 285 259 247 223 225 251 236 242 245 247 265 261 230 251 296 306 282 270 273 285 284 171 206 293 106 103 346 222 312 272 226 242 277 280 144 173
315 317 313 297 296 294 288 288 279 271 264 240 250 234 246 257 245 243 254 264 254 270 286 288 358 335 3 312 268 223 188 198 110 119 153 295 121 22 33 7 291 231 210 218
315 313 314 300 296 297 293 287 282 255 263 232 243 245 233 230 237 283 250 261 266 228 167 127 175 223 224 302 304 284 190 351 109 126 147 189 180 155 217 140 281 328 251 191
314 312 310 297 298 299 296 291 286 279 227 249 251 226 228 220 201 230 259 202 195 207 186 173 166 240 172 199 186 184 138 63 172 261 149 278 241 176 136 90 289 330 16 294
316 312 308 298 300 299 298 293 289 274 253 262 242 239 224 224 208 216 206 114 242 147 195 184 205 164 232 118 190 183 171 156 179 136 80 274 203 122 165 187 175 80 24 36
315 314 306 305 302 300 302 295 288 282 261 250 258 253 251 234 251 231 197 205 156 191 160 202 118 151 66 168 259 11 230 194 185 187 212 170 188 296 259 234 208 247 153 272
313 314 307 305 304 302 300 303 302 278 263 265 257 248 249 248 242 228 206 221 208 197 197 160 190 209 141 164 234 165 290 289 227 75 248 245 259 277 276 280 272 270 270 258
313 312 310 304 305 304 300 300 291 270 264 257 251 251 246 252 233 223 216 234 212 220 195 163 155 177 187 206 192 171 194 152 196 262 265 281 274 266 271 272 269 280 287 287
312 311 312 304 305 303 303 293 281 262 232 260 243 253 250 241 225 225 219 221 219 201 180 157 213 195 130 308 65 267 173 176 169 221 236 227 248 271 277 279 282 283 286 288
312 312 310 307 303 304 305 299 290 265 234 218 215 234 216 212 215 216 215 217 208 217 181 199 212 188 158 126 203 256 249 247 250 244 259 258 265 274 280 273 271 271 273 276
313 311 309 306 298 294 284 262 286 289 217 189 136 211 190 190 189 198 203 210 205 203 190 193 165 197 174 138 227 250 237 245 260 272 283 288 280 275 278 272 269 269 262 264
315 312 310 314 296 288 275 276 271 208 183 169 129 237 164 168 153 155 184 186 195 206 193 152 157 167 169 225 241 250 251 254 260 266 266 262 282 294 285 270 268 261 255 256
313 317 328 313 289 302 293 283 203 185 183 151 136 154 189 166 121 142 157 171 181 185 178 197 161 166 213 220 239 242 245 237 243 248 257 261 278 304 283 257 251 253 251 258
312 331 334 296 337 320 313 178 189 193 200 182 163 148 145 164 138 163 115 164 173 174 231 143 203 233 237 238 235 225 224 227 238 261 249 253 262 281 285 263 233 232 232 227
332 311 283 305 306 310 252 215 167 136 191 191 177 172 136 186 130 159 202 171 163 176 236 176 205 262 237 220 223 224 234 238 243 246 252 259 267 276 278 269 264 266 261 256
297 294 295 298 278 253 243 176 117 136 209 174 152 183 138 155 165 116 173 155 140 214 140 147 225 241 175 195 214 226 234 242 247 251 253 257 265 272 272 276 277 274 268 261
314 282 272 272 259 257 208 205 248 207 175 171 166 140 130 131 171 85 133 148 206 73 93 216 229 123 165 180 192 205 217 230 239 245 253 262 267 273 278 278 282 280 275 274
284 274 287 202 269 242 198 223 219 235 161 158 154 125 149 149 130 141 172 120 111 127 185 228 218 185 169 180 196 208 227 246 255 263 267 272 276 274 275 279 280 277 276 273
219 205 235 238 285 271 298 309 301 255 165 154 115 88 118 140 140 154 105 64 232 206 221 221 166 160 162 171 199 234 252 266 273 279 282 284 286 287 284 281 280 281 280 275
210 230 274 252 261 281 332 299 282 295 173 156 152 142 129 185 141 133 206 144 219 236 208 138 149 154 168 193 233 282 296 297 300 301 301 298 297 295 292 287 286 284 277 270
214 243 235 257 285 266 281 295 280 266 248 196 143 155 196 113 108 245 186 202 222 163 133 149 153 156 192 250 286 296 298 301 305 306 305 304 306 304 301 302 303 293 283 275